Location: Agadir Irigdalene
(31.2522°N, 8.7797°W)
Time: 16:30:53
(UTC+00:00)

Cosmos 158 Rocket - Pass Details

Date: 01 December 2020
Orbit: 698 x 794 km, 74.0° (Epoch: 26 January)

Event Time Altitude Azimuth Distance (km) Brightness Sun altitude
Rises 18:48:40 0° 200° (SSW) 3,147 7.7 -16.1°
Reaches altitude 10° 18:51:02 10° 202° (SSW) 2,214 6.9 -16.6°
Maximum altitude 18:56:01 73° 287° (WNW) 750 4.0 -17.6°
Drops below altitude 10° 19:00:55 10° 12° (NNE) 2,178 6.1 -18.6°
Enters shadow 19:00:57 10° 12° (NNE) 2,190 6.1 -18.6°
